Regional Weather Roundup
Issued by NWS Spokane, WA

Home | Current Version | Previous Version | Text Only | Print | Product List | Glossary On
Versions: 1 2 3 4 5 6 7 8 9 10 11 12 13 14 15 16 17 18 19 20 21 22 23 24 25 26 27 28 29 30 31 32 33 34 35 36 37 38 39 40 41 42 43 44 45 46 47 48 49 50
000
NZUS01 KOTX 041410
RWROTX
EASTERN WASHINGTON/NORTHERN IDAHO ROUNDUP
NATIONAL WEATHER SERVICE, SPOKANE WA
700 AM PDT FRI SEP 04 2015

Note: "fair" indicated few or no clouds below 12,000 feet with no
significant weather and/or obstructions to visibility.

...NORTHEAST WASHINGTON AND NORTHERN IDAHO PANHANDLE...

CITY           SKY/WX    TMP DP  RH WIND       PRES   REMARKS
SPOKANE INTL   PTCLDY    44  35  70 NE5       29.96R
SPOKANE DOWNTO MOCLDY    41  36  82 CALM      29.98R
COEUR D ALENE  PTCLDY    43  37  81 NE6       29.97S
DEER PARK      CLEAR     45  33  63 N9        29.97R
SANDPOINT      CLEAR     36  36 100 CALM      29.99R
BONNERS FERRY  FAIR      41  39  93 CALM      30.01S

...SOUTHEAST WASHINGTON AND SOUTHERN IDAHO PANHANDLE...

CITY           SKY/WX    TMP DP  RH WIND       PRES   REMARKS
WALLA WALLA    CLEAR     45  36  70 SE5       29.93S
PULLMAN/MOSCOW CLEAR     41  37  86 CALM      29.96S
LEWISTON       CLEAR     43  41  93 CALM      29.96R
LOWELL           N/A     48  45  89 CALM      29.97R

...COLUMBIA BASIN...

CITY           SKY/WX    TMP DP  RH WIND       PRES   REMARKS
EPHRATA        MOCLDY    49  33  54 N9        29.93S
MOSES LAKE     PTCLDY    42  30  62 N8        29.95R
TRI CITIES     PTCLDY    40  37  89 N5        29.94R
HERMISTON      PTCLDY    41  35  79 SE3       29.93S
PENDLETON      PTCLDY    41  29  62 SE10      29.93S

...EAST SLOPES CASCADES...

CITY           SKY/WX    TMP DP  RH WIND       PRES   REMARKS
THE DALLES     PTCLDY    48  42  80 CALM      29.95S
YAKIMA         MOCLDY    45  36  70 W12       29.95R
ELLENSBURG     PTCLDY    39  32  76 CALM      29.95R
WENATCHEE      CLOUDY    51  38  60 W8        29.96R
OMAK           PTCLDY    50  36  58 N10       29.98S

...SOUTHERN BRITISH COLUMBIA...

CITY           SKY/WX    TMP DP  RH WIND       PRES   REMARKS
PENTICTON      PTCLDY    46  37  71 NW7       30.03R
CRANBROOK      MOCLDY    37  36  93 W5        30.06R

...WESTERN MONTANA...

CITY           SKY/WX    TMP DP  RH WIND       PRES   REMARKS
MISSOULA       CLOUDY    42  42 100 W3        29.98S

...NEIGHBORING CITIES...

CITY           SKY/WX    TMP DP  RH WIND       PRES   REMARKS
SEATTLE        CLOUDY    51  48  89 N10       30.01R
CALGARY        CLOUDY    41  36  81 N16       30.08S



USA.gov is the U.S. government's official web portal to all federal, state and local government web resources and services.